Terminal Aerodrome Forecast
Issued by NWS Milwaukee/Sullivan, WI

Home | Current Version | Previous Version | Text Only | Print | Product List | Glossary On
Versions: 1 2 3 4 5 6 7 8 9 10 11 12 13 14 15 16 17 18 19 20 21 22 23 24 25 26 27 28 29 30 31 32 33 34 35 36 37 38 39 40 41 42 43 44 45 46 47 48 49 50
508
FTUS43 KMKX 100318 AAD
TAFMSN
TAF AMD
KMSN 100318Z 1003/1024 32010KT P6SM OVC040
     FM100400 33012KT P6SM BKN050
     FM101400 32011KT P6SM FEW200
     FM102200 32007KT P6SM SCT250=

USA.gov is the U.S. government's official web portal to all federal, state and local government web resources and services.